Location: Mary A Oil Field
(38.5606°N, 98.9545°W)
Time: 21:28:18
(UTC+00:00)

Atlas Centaur 2 - Pass Details

Date: 20 January 2020
Orbit: 459 x 1310 km, 30.4° (Epoch: 27 February)

Event Time Altitude Azimuth Distance (km) Brightness Sun altitude
Rises 00:23:11 0° 195° (SSW) 2,949 5.6 -8.1°
Reaches altitude 10° 00:28:23 10° 148° (SSE) 2,316 4.4 -9.1°
Maximum altitude 00:28:37 10° 145° (SE) 2,327 4.3 -9.1°
Drops below altitude 10° 00:28:52 10° 143° (SE) 2,342 4.3 -9.2°
Enters shadow 00:32:52 - 110° (ESE) 3,034 4.6 -9.9°
